Find Starlink 31506

NORAD ID: 59259 Int'l Des: 2024-050 Owner: SPXS Country: US Constellation: starlink operational
LEOCIRCULAR

Live Position

Loading 3D Globe...

About Starlink 31506

Description loading...

Upcoming Passes

Passes for default location (London). Set your location on the main map for personalized predictions.

Altitude History

Loading altitude history...

Two-Line Element Set

1 59259U 24050F 26132.60106726 .00003652 00000-0 13547-3 0 9992
2 59259 53.1613 244.1381 0001105 100.5168 259.5957 15.30175639120333
Epoch: May 12, 2026 • Age: 21 hours

Current Status

Altitude 480.0 km
Velocity 7.63 km/s
Sub-Earth Point 48.42°N, 37.54°W
Launch Date Mar 19, 2024
Age 2.1 years
Type internet

Technical Details

Classification Payload
Mass 730.00 kg
Dry Mass 700.00 kg
Total Mass 730.00 kg
Length 0.30 m
Diameter 4.10 m
Span 29.00 m
Shape Box + pan
Manufacturer SPXS
Bus Type Starlink V2M
Phase Status In Orbit
Owner/State SPXS/US

Most Searched